When you browse on this site, cookies collect data to enhance your experience and personalize the content and advertising you see.
Visit our Privacy Policy to learn more. By continuing to use the site, you agree to this use of cookies and data.
  • In Romania
  • List of Countries
  • For 7 days
  • Water Temperature
  • Satellite Maps
  • Weather Map
  • Weather Widgets
  • user-avatar
    Login

    Hourly Weather Mariny Kolodcy

    Today, 23 April, Tuesday

    Time Temperature Precipitation Wind Pressure Humidity
    00:00 +2°C° 0 mm 3 mps 729 mmHg 80%
    01:00 +3°C° 0 mm 2 mps 729 mmHg 82%
    02:00 +2°C° 0 mm 2 mps 729 mmHg 84%
    03:00 +2°C° 0 mm 2 mps 729 mmHg 86%
    04:00 +3°C° 0 mm 1 mps 729 mmHg 85%
    05:00 +3°C° 0 mm 1 mps 729 mmHg 83%
    06:00 +3°C° 0 mm 1 mps 730 mmHg 82%
    07:00 +4°C° 0 mm 2 mps 730 mmHg 71%
    08:00 +6°C° 0 mm 2 mps 730 mmHg 59%
    09:00 +9°C° 0 mm 3 mps 731 mmHg 48%
    10:00 +10°C° 0 mm 3 mps 731 mmHg 44%
    11:00 +11°C° 0 mm 3 mps 731 mmHg 40%
    12:00 +12°C° 0 mm 4 mps 731 mmHg 37%
    13:00 +13°C° 0 mm 3 mps 731 mmHg 36%
    14:00 +13°C° 0 mm 3 mps 731 mmHg 36%
    15:00 +14°C° 0 mm 3 mps 731 mmHg 35%
    16:00 +14°C° 0 mm 2 mps 731 mmHg 39%
    17:00 +14°C° 0 mm 2 mps 731 mmHg 42%
    18:00 +13°C° 0 mm 1 mps 731 mmHg 46%
    19:00 +12°C° 0 mm 1 mps 732 mmHg 47%
    20:00 +10°C° 0 mm 1 mps 732 mmHg 48%
    21:00 +9°C° 0 mm 1 mps 732 mmHg 49%
    22:00 +9°C° 0 mm 1 mps 732 mmHg 51%
    23:00 +7°C° 0 mm 2 mps 732 mmHg 54%

    Tomorrow, 24 April, Wednesday

    Time Temperature Precipitation Wind Pressure Humidity
    00:00 +6°C° 0 mm 2 mps 732 mmHg 56%
    01:00 +6°C° 0 mm 2 mps 732 mmHg 57%
    02:00 +6°C° 0 mm 2 mps 732 mmHg 58%
    03:00 +6°C° 0 mm 2 mps 732 mmHg 60%
    04:00 +6°C° 0 mm 2 mps 732 mmHg 61%
    05:00 +4°C° 0 mm 3 mps 732 mmHg 63%
    06:00 +4°C° 0 mm 3 mps 732 mmHg 64%
    07:00 +8°C° 0 mm 3 mps 732 mmHg 58%
    08:00 +10°C° 0 mm 3 mps 732 mmHg 53%
    09:00 +13°C° 0 mm 4 mps 732 mmHg 47%
    10:00 +14°C° 0 mm 4 mps 732 mmHg 45%
    11:00 +14°C° 0 mm 4 mps 732 mmHg 43%
    12:00 +15°C° 0 mm 4 mps 732 mmHg 40%
    13:00 +15°C° 0 mm 4 mps 732 mmHg 41%
    14:00 +15°C° 0 mm 4 mps 731 mmHg 42%
    15:00 +15°C° 0 mm 4 mps 731 mmHg 42%
    16:00 +15°C° 0 mm 4 mps 731 mmHg 47%
    17:00 +14°C° 0 mm 3 mps 731 mmHg 52%
    18:00 +14°C° 0 mm 3 mps 731 mmHg 57%
    19:00 +12°C° 0 mm 3 mps 731 mmHg 60%
    20:00 +11°C° 0 mm 3 mps 732 mmHg 63%
    21:00 +10°C° 0 mm 3 mps 732 mmHg 67%
    22:00 +10°C° 0 mm 3 mps 732 mmHg 66%
    23:00 +10°C° 0 mm 3 mps 732 mmHg 66%

    Day after tomorrow, 25 April, Thursday

    Time Temperature Precipitation Wind Pressure Humidity
    00:00 +9°C° 0 mm 3 mps 732 mmHg 66%
    01:00 +9°C° 0 mm 3 mps 732 mmHg 67%
    02:00 +9°C° 0 mm 3 mps 731 mmHg 68%
    03:00 +8°C° 0 mm 3 mps 731 mmHg 69%
    04:00 +8°C° 0 mm 3 mps 731 mmHg 68%
    05:00 +8°C° 0 mm 3 mps 731 mmHg 67%
    06:00 +9°C° 0 mm 3 mps 731 mmHg 66%
    07:00 +10°C° 0 mm 4 mps 731 mmHg 63%
    08:00 +12°C° 0 mm 4 mps 731 mmHg 61%
    09:00 +13°C° 0 mm 4 mps 731 mmHg 58%
    10:00 +14°C° 0 mm 4 mps 731 mmHg 55%
    11:00 +17°C° 0 mm 3 mps 731 mmHg 52%
    12:00 +18°C° 0 mm 3 mps 731 mmHg 48%
    13:00 +18°C° 0 mm 3 mps 731 mmHg 48%
    14:00 +18°C° 0 mm 3 mps 731 mmHg 48%
    15:00 +18°C° 0 mm 3 mps 731 mmHg 48%
    16:00 +18°C° 0 mm 3 mps 731 mmHg 52%
    17:00 +17°C° 0 mm 2 mps 730 mmHg 55%
    18:00 +17°C° 0 mm 2 mps 730 mmHg 59%
    19:00 +15°C° 0 mm 2 mps 731 mmHg 62%
    20:00 +14°C° 0 mm 1 mps 731 mmHg 66%
    21:00 +12°C° 0 mm 1 mps 731 mmHg 69%
    22:00 +12°C° 0 mm 1 mps 731 mmHg 71%
    23:00 +11°C° 0 mm 1 mps 730 mmHg 73%

    26 April, Friday

    Time Temperature Precipitation Wind Pressure Humidity
    00:00 +11°C° 0 mm 1 mps 730 mmHg 75%
    01:00 +11°C° 0 mm 1 mps 730 mmHg 76%
    02:00 +10°C° 0 mm 1 mps 730 mmHg 77%
    03:00 +10°C° 0 mm 1 mps 730 mmHg 77%
    04:00 +10°C° 0 mm 1 mps 730 mmHg 77%
    05:00 +10°C° 0 mm 1 mps 730 mmHg 77%
    06:00 +10°C° 0 mm 1 mps 730 mmHg 76%
    07:00 +13°C° 0 mm 1 mps 730 mmHg 69%
    08:00 +15°C° 0 mm 1 mps 730 mmHg 62%
    09:00 +18°C° 0 mm 1 mps 730 mmHg 55%
    10:00 +18°C° 0 mm 2 mps 730 mmHg 51%
    11:00 +19°C° 0 mm 3 mps 729 mmHg 47%
    12:00 +20°C° 0 mm 4 mps 729 mmHg 43%
    13:00 +20°C° 0 mm 4 mps 729 mmHg 43%
    14:00 +20°C° 0 mm 5 mps 728 mmHg 43%
    15:00 +20°C° 0 mm 5 mps 728 mmHg 43%
    16:00 +19°C° 0 mm 4 mps 728 mmHg 48%
    17:00 +19°C° 0 mm 4 mps 728 mmHg 52%
    18:00 +18°C° 0 mm 3 mps 728 mmHg 56%
    19:00 +16°C° 0 mm 3 mps 728 mmHg 59%
    20:00 +14°C° 0 mm 3 mps 728 mmHg 62%
    21:00 +13°C° 0 mm 2 mps 728 mmHg 64%
    22:00 +13°C° 0 mm 2 mps 728 mmHg 65%
    23:00 +12°C° 0 mm 2 mps 728 mmHg 66%

    27 April, Saturday

    Time Temperature Precipitation Wind Pressure Humidity
    00:00 +10°C° 0 mm 2 mps 728 mmHg 67%
    01:00 +10°C° 0 mm 2 mps 728 mmHg 69%
    02:00 +10°C° 0 mm 2 mps 728 mmHg 70%
    03:00 +9°C° 0 mm 2 mps 728 mmHg 72%
    04:00 +9°C° 0 mm 2 mps 728 mmHg 72%
    05:00 +9°C° 0 mm 2 mps 728 mmHg 72%
    06:00 +9°C° 0 mm 2 mps 728 mmHg 73%
    07:00 +11°C° 0 mm 3 mps 728 mmHg 64%
    08:00 +14°C° 0 mm 4 mps 728 mmHg 54%
    09:00 +16°C° 0 mm 5 mps 728 mmHg 45%
    10:00 +17°C° 0 mm 5 mps 727 mmHg 44%
    11:00 +19°C° 0 mm 5 mps 727 mmHg 42%
    12:00 +20°C° 0 mm 6 mps 727 mmHg 40%
    13:00 +20°C° 0 mm 6 mps 727 mmHg 41%
    14:00 +20°C° 0 mm 6 mps 726 mmHg 42%
    15:00 +20°C° 0 mm 6 mps 726 mmHg 42%
    16:00 +20°C° 0 mm 5 mps 726 mmHg 47%
    17:00 +19°C° 0 mm 4 mps 726 mmHg 52%
    18:00 +18°C° 0 mm 4 mps 726 mmHg 57%
    19:00 +16°C° 0 mm 3 mps 726 mmHg 59%
    20:00 +13°C° 0 mm 3 mps 726 mmHg 62%
    21:00 +12°C° 0 mm 3 mps 726 mmHg 64%
    22:00 +11°C° 0 mm 3 mps 726 mmHg 64%
    23:00 +10°C° 0 mm 2 mps 726 mmHg 65%

    28 April, Sunday

    Time Temperature Precipitation Wind Pressure Humidity
    00:00 +9°C° 0 mm 2 mps 725 mmHg 65%
    01:00 +8°C° 0 mm 2 mps 725 mmHg 67%
    02:00 +8°C° 0 mm 1 mps 725 mmHg 68%
    03:00 +8°C° 0 mm 1 mps 725 mmHg 69%
    04:00 +8°C° 0 mm 1 mps 725 mmHg 71%
    05:00 +8°C° 0 mm 1 mps 725 mmHg 72%
    06:00 +7°C° 0 mm 0 mps 725 mmHg 74%
    07:00 +10°C° 0 mm 0 mps 725 mmHg 68%
    08:00 +13°C° 0 mm 1 mps 725 mmHg 62%
    09:00 +15°C° 0 mm 1 mps 725 mmHg 56%
    10:00 +16°C° 0 mm 1 mps 725 mmHg 53%
    11:00 +19°C° 0 mm 1 mps 725 mmHg 50%
    12:00 +20°C° 0 mm 2 mps 724 mmHg 47%
    13:00 +20°C° 0 mm 2 mps 724 mmHg 45%
    14:00 +21°C° 0 mm 2 mps 724 mmHg 44%
    15:00 +21°C° 0 mm 2 mps 724 mmHg 43%
    16:00 +21°C° 0 mm 2 mps 724 mmHg 47%
    17:00 +20°C° 0 mm 2 mps 724 mmHg 51%
    18:00 +19°C° 0 mm 2 mps 724 mmHg 55%
    19:00 +18°C° 0 mm 2 mps 724 mmHg 60%
    20:00 +16°C° 0 mm 1 mps 724 mmHg 65%
    21:00 +14°C° 0 mm 1 mps 724 mmHg 69%
    22:00 +14°C° 0 mm 1 mps 724 mmHg 71%
    23:00 +12°C° 0 mm 0 mps 724 mmHg 73%
    Show more